Regional Weather Roundup
Issued by NWS

Home | Current Version | Previous Version | Text Only | Print | Product List | Glossary Off
Versions: 1 2 3 4 5 6 7 8 9 10 11 12 13 14 15 16 17 18 19 20 21 22 23 24 25 26 27 28 29 30 31 32 33 34 35 36 37 38 39 40 41 42 43 44 45 46 47 48 49 50

000
ASUS43 KFSD 261502
RWRSD

WEATHER ROUNDUP FOR SOUTH DAKOTA
NATIONAL WEATHER SERVICE SIOUX FALLS SD
900 AM CST SUN FEB 26 2017

NOTE: "FAIR" INDICATES FEW OR NO CLOUDS BELOW 12,000 FEET WITH NO
SIGNIFICANT WEATHER AND/OR OBSTRUCTIONS TO VISIBILITY.


SDZ001>005-009-010-012>017-261600-
NORTHWEST AND NORTH CENTRAL SOUTH DAKOTA

CITY           SKY/WX    TMP DP  RH WIND       PRES   REMARKS
BUFFALO          N/A     22  15  75 W9        29.64R WCI  12
FAITH            N/A     26  18  71 W15       29.73R WCI  14
MOBRIDGE       PTSUNNY   20  14  77 VRB3      29.76R
$$

SDZ012>016-024>037-041>051-057-063-072>074-261600-
SOUTHWEST AND SOUTH CENTRAL SOUTH DAKOTA

CITY           SKY/WX    TMP DP  RH WIND       PRES   REMARKS
RAPID CTY ARPT SUNNY     23  12  62 SW6       29.77R WCI  16
PIERRE         SUNNY     23  18  81 SW10      29.80R WCI  12
CUSTER         SUNNY     16   7  67 W6        29.68R WCI   7
ELLSWORTH AFB  SUNNY     23  15  70 SW8       29.75R WCI  14
PHILIP         SUNNY     22  15  75 W8        29.81R WCI  12
PINE RIDGE     SUNNY     17   4  56 W10       29.83R WCI   5
SPEARFISH      FAIR      25  10  54 W8        29.72R WCI  16
WINNER         FAIR      25  13  60 CALM      29.83R
$$

SDZ004>011-016>023-039-040-261600-
NORTHEAST SOUTH DAKOTA

CITY           SKY/WX    TMP DP  RH WIND       PRES   REMARKS
ABERDEEN       SUNNY     19  14  81 N12       29.83R WCI   7
WATERTOWN      SUNNY     24  20  84 NW12      29.77R WCI  13
BROOKINGS      SUNNY     27  23  85 NW13      29.78R WCI  16
SISSETON         N/A     17  13  84 N14       29.82R WCI   3
$$

SDZ017-020-022-023-036>040-048>070-261600-
SOUTHEAST SOUTH DAKOTA

CITY           SKY/WX    TMP DP  RH WIND       PRES   REMARKS
SIOUX FALLS    MOSUNNY   24  18  77 W13       29.82R WCI  12
HURON          MOSUNNY   26  22  84 N10       29.83R WCI  16
CHAMBERLAIN    SUNNY     27  20  77 W10       29.84R WCI  17
MITCHELL       SUNNY     27  22  81 W9        29.85R WCI  18
YANKTON        SUNNY     21  16  79 SW7       29.86R WCI  13
$$

ABBREVIATIONS USED IN REMARKS
   TC - TEMPERATURE IN CELSIUS
  WCI - WIND CHILL INDEX
   HX - HEAT INDEX
  VSB - VISIBILITY




USA.gov is the U.S. government's official web portal to all federal, state and local government web resources and services.